Time,TemperatureF,DewpointF,PressureIn,WindDirection,WindDirectionDegrees,WindSpeedMPH,WindSpeedGustMPH,Humidity,HourlyPrecipIn,Conditions,Clouds,dailyrainin,SoftwareType,DateUTC
2013-09-07 00:12:00,62.0,60.0,30.11,SSE,160,1.0,4.0,93,0.00,,,1.32,,2013-09-07 07:12:00,
2013-09-07 00:22:00,61.0,59.0,30.11,SSW,201,3.0,6.0,94,0.00,,,1.21,,2013-09-07 07:22:00,
2013-09-07 00:42:00,61.0,59.0,30.10,South,183,3.0,6.0,94,0.00,,,1.21,,2013-09-07 07:42:00,
2013-09-07 00:52:00,61.0,59.0,30.10,SSE,155,3.0,7.0,94,0.00,,,1.21,,2013-09-07 07:52:00,
2013-09-07 01:12:00,61.0,59.0,30.10,SSE,166,2.0,7.0,94,0.00,,,1.21,,2013-09-07 08:12:00,
2013-09-07 01:21:00,61.0,59.0,30.11,South,179,2.0,6.0,94,0.00,,,0.80,,2013-09-07 08:21:00,
2013-09-07 01:53:00,61.0,59.0,30.11,South,170,2.0,7.0,94,0.00,,,0.80,,2013-09-07 08:53:00,
2013-09-07 02:12:00,62.0,60.0,30.10,SW,235,3.0,7.0,94,0.00,,,0.80,,2013-09-07 09:12:00,
2013-09-07 02:21:00,62.0,60.0,30.10,SSW,211,3.0,8.0,93,0.00,,,0.33,,2013-09-07 09:21:00,
2013-09-07 02:42:00,62.0,60.0,30.10,South,183,2.0,6.0,93,0.00,,,0.33,,2013-09-07 09:42:00,
2013-09-07 02:52:00,62.0,60.0,30.10,WSW,242,2.0,6.0,93,0.00,,,0.33,,2013-09-07 09:52:00,
2013-09-07 03:11:00,62.0,60.0,30.09,SSW,201,2.0,5.0,93,0.00,,,0.33,,2013-09-07 10:11:00,
2013-09-07 03:21:00,62.0,60.0,30.09,SSW,212,2.0,6.0,93,0.00,,,0.18,,2013-09-07 10:21:00,
2013-09-07 03:41:00,62.0,60.0,30.09,SW,226,2.0,6.0,93,0.00,,,0.18,,2013-09-07 10:41:00,
2013-09-07 03:51:00,62.0,60.0,30.09,SSW,212,2.0,3.0,93,0.00,,,0.18,,2013-09-07 10:51:00,
2013-09-07 04:13:00,61.0,59.0,30.09,WSW,248,2.0,4.0,93,0.00,,,0.18,,2013-09-07 11:13:00,
2013-09-07 04:23:00,61.0,59.0,30.09,WSW,242,1.0,4.0,93,0.00,,,0.15,,2013-09-07 11:23:00,
2013-09-07 04:43:00,61.0,59.0,30.09,WSW,240,2.0,4.0,93,0.00,,,0.15,,2013-09-07 11:43:00,
2013-09-07 04:52:00,61.0,59.0,30.09,West,271,0.0,2.0,94,0.00,,,0.15,,2013-09-07 11:52:00,
2013-09-07 05:12:00,61.0,59.0,30.09,SSW,193,0.0,1.0,94,0.00,,,0.15,,2013-09-07 12:12:00,
2013-09-07 05:22:00,61.0,59.0,30.09,WSW,243,0.0,1.0,94,0.00,,,0.15,,2013-09-07 12:22:00,
2013-09-07 05:42:00,60.0,58.0,30.09,South,187,0.0,1.0,94,0.00,,,0.15,,2013-09-07 12:42:00,
2013-09-07 05:52:00,60.0,58.0,30.09,South,187,0.0,1.0,94,0.00,,,0.15,,2013-09-07 12:52:00,
2013-09-07 06:11:00,61.0,59.0,30.08,SW,231,0.0,0.0,94,0.00,,,0.15,,2013-09-07 13:11:00,
2013-09-07 06:21:00,61.0,59.0,30.08,ESE,113,0.0,1.0,94,0.00,,,0.15,,2013-09-07 13:21:00,
2013-09-07 06:52:00,61.0,59.0,30.08,East,86,0.0,1.0,94,0.00,,,0.15,,2013-09-07 13:52:00,
2013-09-07 07:11:00,61.0,59.0,30.08,ESE,102,0.0,1.0,94,0.00,,,0.15,,2013-09-07 14:11:00,
2013-09-07 07:22:00,61.0,59.0,30.08,ESE,118,0.0,1.0,94,0.00,,,0.14,,2013-09-07 14:22:00,
2013-09-07 07:52:00,61.0,59.0,30.08,East,101,0.0,1.0,94,0.00,,,0.14,,2013-09-07 14:52:00,
2013-09-07 08:11:00,61.0,59.0,30.08,East,101,0.0,0.0,94,0.00,,,0.14,,2013-09-07 15:11:00,
2013-09-07 08:22:00,61.0,59.0,30.08,East,96,0.0,0.0,94,0.00,,,0.14,,2013-09-07 15:22:00,
2013-09-07 08:44:00,61.0,59.0,30.08,SW,226,1.0,3.0,93,0.00,,,0.14,,2013-09-07 15:44:00,
2013-09-07 08:54:00,60.0,59.0,30.08,WSW,251,0.0,3.0,95,0.00,,,0.14,,2013-09-07 15:54:00,
2013-09-07 09:24:00,60.0,59.0,30.08,WNW,288,1.0,2.0,95,0.00,,,0.10,,2013-09-07 16:24:00,
2013-09-07 09:43:00,61.0,60.0,30.08,West,274,1.0,3.0,95,0.00,,,0.10,,2013-09-07 16:43:00,
2013-09-07 09:53:00,60.0,59.0,30.08,West,273,1.0,3.0,95,0.00,,,0.10,,2013-09-07 16:53:00,
2013-09-07 10:12:00,60.0,59.0,30.08,West,278,1.0,3.0,95,0.00,,,0.10,,2013-09-07 17:12:00,
2013-09-07 10:24:00,61.0,60.0,30.09,West,262,1.0,3.0,95,0.00,,,0.04,,2013-09-07 17:24:00,
2013-09-07 10:43:00,61.0,59.0,30.08,West,280,0.0,3.0,94,0.00,,,0.04,,2013-09-07 17:43:00,
2013-09-07 10:52:00,61.0,59.0,30.08,WNW,302,1.0,2.0,94,0.00,,,0.04,,2013-09-07 17:52:00,
2013-09-07 11:12:00,61.0,59.0,30.08,WNW,300,2.0,4.0,93,0.00,,,0.04,,2013-09-07 18:12:00,
2013-09-07 11:21:00,61.0,59.0,30.08,WNW,290,1.0,6.0,94,0.00,,,0.02,,2013-09-07 18:21:00,
2013-09-07 11:43:00,61.0,59.0,30.08,NW,315,2.0,4.0,94,0.00,,,0.02,,2013-09-07 18:43:00,
2013-09-07 11:52:00,61.0,59.0,30.08,WNW,285,2.0,5.0,94,0.00,,,0.02,,2013-09-07 18:52:00,
2013-09-07 12:02:00,61.0,59.0,30.08,WNW,285,2.0,5.0,94,0.00,,,0.02,,2013-09-07 19:02:00,
2013-09-07 12:11:00,61.0,59.0,30.08,WNW,285,2.0,5.0,94,0.00,,,0.02,,2013-09-07 19:11:00,
2013-09-07 12:21:00,62.0,60.0,30.07,NNW,333,2.0,5.0,93,0.00,,,0.00,,2013-09-07 19:21:00,
2013-09-07 12:52:00,64.0,60.0,30.07,WNW,298,4.0,8.0,88,0.00,,,0.00,,2013-09-07 19:52:00,
2013-09-07 13:11:00,64.0,60.0,30.07,WNW,295,5.0,8.0,87,0.00,,,0.00,,2013-09-07 20:11:00,
2013-09-07 13:22:00,65.0,61.0,30.07,West,281,3.0,6.0,86,0.00,,,0.00,,2013-09-07 20:22:00,
2013-09-07 13:53:00,66.0,60.0,30.06,NNW,335,4.0,8.0,81,0.00,,,0.00,,2013-09-07 20:53:00,
2013-09-07 14:12:00,67.0,61.0,30.06,West,274,2.0,8.0,81,0.00,,,0.00,,2013-09-07 21:12:00,
2013-09-07 14:22:00,67.0,60.0,30.06,WNW,285,5.0,7.0,78,0.00,,,0.00,,2013-09-07 21:22:00,
2013-09-07 14:54:00,67.0,60.0,30.06,NNW,342,3.0,9.0,77,0.00,,,0.00,,2013-09-07 21:54:00,
2013-09-07 15:13:00,68.0,59.0,30.06,NW,316,3.0,8.0,73,0.00,,,0.00,,2013-09-07 22:13:00,
2013-09-07 15:24:00,69.0,61.0,30.05,NW,316,2.0,6.0,75,0.00,,,0.00,,2013-09-07 22:24:00,
2013-09-07 15:53:00,69.0,60.0,30.04,WNW,288,5.0,10.0,72,0.00,,,0.00,,2013-09-07 22:53:00,
2013-09-07 16:12:00,69.0,59.0,30.04,NW,314,2.0,7.0,70,0.00,,,0.00,,2013-09-07 23:12:00,
2013-09-07 16:23:00,70.0,59.0,30.04,WNW,283,5.0,8.0,69,0.00,,,0.00,,2013-09-07 23:23:00,
2013-09-07 16:42:00,70.0,59.0,30.03,WNW,290,4.0,8.0,69,0.00,,,0.00,,2013-09-07 23:42:00,
2013-09-07 16:52:00,70.0,59.0,30.03,NW,309,4.0,7.0,67,0.00,,,0.00,,2013-09-07 23:52:00,
2013-09-07 17:11:00,70.0,59.0,30.03,NNW,329,5.0,8.0,68,0.00,,,0.00,,2013-09-08 00:11:00,
2013-09-07 17:22:00,70.0,59.0,30.03,NW,305,3.0,7.0,68,0.00,,,0.00,,2013-09-08 00:22:00,
2013-09-07 17:42:00,70.0,59.0,30.02,WNW,284,3.0,7.0,68,0.00,,,0.00,,2013-09-08 00:42:00,
2013-09-07 17:52:00,70.0,59.0,30.02,WNW,293,3.0,7.0,69,0.00,,,0.00,,2013-09-08 00:52:00,
2013-09-07 18:11:00,70.0,59.0,30.02,WNW,302,3.0,7.0,68,0.00,,,0.00,,2013-09-08 01:11:00,
2013-09-07 18:22:00,70.0,59.0,30.01,NNW,330,3.0,8.0,67,0.00,,,0.00,,2013-09-08 01:22:00,
2013-09-07 18:42:00,70.0,60.0,30.01,WNW,302,3.0,8.0,71,0.00,,,0.00,,2013-09-08 01:42:00,
2013-09-07 18:52:00,70.0,61.0,30.01,NNW,338,2.0,6.0,72,0.00,,,0.00,,2013-09-08 01:52:00,
2013-09-07 19:11:00,70.0,61.0,30.01,NNW,329,4.0,6.0,72,0.00,,,0.00,,2013-09-08 02:11:00,
2013-09-07 19:22:00,69.0,60.0,30.01,NW,313,2.0,6.0,73,0.00,,,0.00,,2013-09-08 02:22:00,
2013-09-07 19:43:00,68.0,59.0,30.02,NE,49,2.0,6.0,74,0.00,,,0.00,,2013-09-08 02:43:00,
2013-09-07 19:52:00,67.0,59.0,30.02,NNW,327,2.0,6.0,75,0.00,,,0.00,,2013-09-08 02:52:00,
2013-09-07 20:12:00,66.0,58.0,30.02,North,353,3.0,6.0,76,0.00,,,0.00,,2013-09-08 03:12:00,
2013-09-07 20:22:00,66.0,59.0,30.02,NNW,329,1.0,4.0,78,0.00,,,0.00,,2013-09-08 03:22:00,
2013-09-07 20:44:00,65.0,59.0,30.03,NNE,23,3.0,7.0,80,0.00,,,0.00,,2013-09-08 03:44:00,
2013-09-07 20:54:00,64.0,58.0,30.03,NNE,20,4.0,7.0,82,0.00,,,0.00,,2013-09-08 03:54:00,
2013-09-07 21:02:00,-999.0,-99.9,30.03,NNW,339,3.0,7.0,-999,-99.99,,,-99.99,,2013-09-08 04:02:00,
2013-09-07 21:24:00,64.0,58.0,30.03,North,358,2.0,5.0,82,0.00,,,0.00,,2013-09-08 04:24:00,
2013-09-07 21:43:00,64.0,58.0,30.04,NNW,342,2.0,4.0,82,0.00,,,0.00,,2013-09-08 04:43:00,
2013-09-07 21:54:00,63.0,58.0,30.04,NE,40,2.0,5.0,83,0.00,,,0.00,,2013-09-08 04:54:00,
2013-09-07 22:12:00,63.0,58.0,30.04,NE,40,2.0,4.0,83,0.00,,,0.00,,2013-09-08 05:12:00,
2013-09-07 22:23:00,63.0,58.0,30.04,NNE,21,1.0,3.0,85,0.00,,,0.00,,2013-09-08 05:23:00,
2013-09-07 22:52:00,62.0,58.0,30.05,NNW,332,4.0,9.0,86,0.00,,,0.00,,2013-09-08 05:52:00,
2013-09-07 23:12:00,62.0,58.0,30.05,East,83,3.0,6.0,86,0.00,,,0.00,,2013-09-08 06:12:00,
2013-09-07 23:21:00,62.0,58.0,30.05,NNE,25,4.0,7.0,86,0.00,,,0.00,,2013-09-08 06:21:00,
2013-09-07 23:53:00,62.0,58.0,30.05,NNE,27,0.0,3.0,86,0.00,,,0.00,,2013-09-08 06:53:00,